Weather History for Rome Ciampino, Italy

Change the Weather History Date:

Tuesday, November 5, 2013

  Actual Average Record
Temperature  
Mean Temperature 58 °F -  
Max Temperature 64 °F 60 °F 71 °F (2004)
Min Temperature 51 °F 43 °F 37 °F (2006)
Degree Days  
Heating Degree Days 6    
Growing Degree Days 8 (Base 50)    
Moisture  
Dew Point 57 °F    
Average Humidity 91    
Maximum Humidity 100    
Minimum Humidity 64    
Precipitation  
Precipitation 0.00 in 0.17 in - ()
Sea Level Pressure  
Sea Level Pressure 29.42 in    
Wind  
Wind Speed 5 mph ()    
Max Wind Speed 14 mph    
Max Gust Speed 20 mph    
Visibility 5.4 miles    
Events Rain , Thunderstorm    
Averages and records for this station are not official NWS values.
T = Trace of Precipitation, MM = Missing Value Source: Averaged Metar Reports

Daily Weather History Graph

Daily Weather History Graph

Search for Another Location

Airport:

Trip Planner

Search our weather history database for the weather conditions in past years. The results will help you decide how hot, cold, wet, or windy it might be!

Date:

Astronomy

Nov. 05, 2013 Rise Set
Actual Time 6:46 AM CET 4:59 PM CET
Civil Twilight 6:17 AM CET 5:28 PM CET
Nautical Twilight 5:44 AM CET 6:01 PM CET
Astronomical Twilight 5:11 AM CET 6:33 PM CET
Moon 8:45 AM CET (11/5) 6:42 PM CET (11/5)
Length of Visible Light 11h 10m
Length of Day
10h 12m
Waxing Crescent, 5% of the Moon is Illuminated
Nov 5
Waxing Crescent
Nov 10
First Quarter
Nov 17
Full
Nov 25
Last Quarter
Dec 3
New

Hourly Weather History & Observations

Time (CET) Temp. Dew Point Humidity Pressure Visibility Wind Dir Wind Speed Gust Speed Precip Events Conditions
12:15 AM 60.8 °F 59.0 °F 94% 29.44 in 2.5 mi West 10.4 mph - N/A Rain , Thunderstorm Thunderstorms and Rain
12:45 AM 59.0 °F 59.0 °F 100% 29.44 in 2.5 mi SE 4.6 mph - N/A Rain , Thunderstorm Light Thunderstorms and Rain
1:15 AM 59.0 °F 59.0 °F 100% 29.42 in 2.5 mi ESE 8.1 mph 19.6 mph N/A Rain , Thunderstorm Thunderstorms and Rain
1:45 AM 60.8 °F 60.8 °F 100% 29.42 in 2.5 mi South 4.6 mph - N/A Rain , Thunderstorm Light Thunderstorms and Rain
2:15 AM 59.0 °F 59.0 °F 100% 29.42 in 3.1 mi SSE 9.2 mph - N/A Rain , Thunderstorm Light Thunderstorms and Rain
2:45 AM 59.0 °F 59.0 °F 100% 29.42 in 4.3 mi South 11.5 mph - N/A Rain , Thunderstorm Light Thunderstorms and Rain
3:15 AM 59.0 °F 59.0 °F 100% 29.39 in 5.0 mi SSE 13.8 mph - N/A Rain Light Rain
3:45 AM 59.0 °F 59.0 °F 100% 29.39 in 5.0 mi SSE 11.5 mph - N/A Rain Light Rain
4:15 AM 59.0 °F 59.0 °F 100% 29.39 in 5.0 mi South 8.1 mph - N/A Rain Light Rain
4:45 AM 59.0 °F 59.0 °F 100% 29.39 in 5.0 mi SSW 2.3 mph - N/A   Scattered Clouds
5:15 AM 59.0 °F 59.0 °F 100% 29.39 in 5.0 mi SSE 2.3 mph - N/A   Scattered Clouds
5:45 AM 59.0 °F 59.0 °F 100% 29.39 in 5.0 mi WSW 3.5 mph - N/A   Scattered Clouds
6:15 AM 59.0 °F 59.0 °F 100% 29.36 in 5.0 mi WSW 3.5 mph - N/A Rain Light Rain
6:45 AM 59.0 °F 59.0 °F 100% 29.36 in 5.0 mi WSW 2.3 mph - N/A Rain Light Rain
7:15 AM 59.0 °F 59.0 °F 100% 29.36 in 5.0 mi NNW 1.2 mph - N/A Rain Light Rain
7:45 AM 59.0 °F 57.2 °F 94% 29.36 in 5.6 mi NNW 2.3 mph - N/A Rain Light Rain
8:15 AM 59.0 °F 57.2 °F 94% 29.36 in 5.6 mi NE 3.5 mph - N/A   Scattered Clouds
8:45 AM 57.2 °F 57.2 °F 100% 29.39 in 5.6 mi NE 3.5 mph - N/A   Scattered Clouds
9:15 AM 59.0 °F 57.2 °F 94% 29.39 in 5.6 mi NNE 3.5 mph - N/A   Scattered Clouds
9:45 AM 59.0 °F 59.0 °F 100% 29.39 in 6.2 mi North 3.5 mph - N/A   Scattered Clouds
10:15 AM 59.0 °F 59.0 °F 100% 29.42 in 6.2 mi North 4.6 mph - N/A   Scattered Clouds
10:45 AM 60.8 °F 60.8 °F 100% 29.42 in 6.2 mi North 5.8 mph - N/A   Scattered Clouds
11:15 AM 60.8 °F 59.0 °F 94% 29.42 in 6.2 mi NNW 5.8 mph - N/A   Scattered Clouds
11:45 AM 60.8 °F 57.2 °F 88% 29.42 in 6.2 mi NNW 6.9 mph - N/A   Scattered Clouds
12:15 PM 62.6 °F 57.2 °F 82% 29.42 in 6.2 mi NNW 6.9 mph - N/A   Scattered Clouds
12:45 PM 62.6 °F 57.2 °F 82% 29.42 in 6.2 mi NNW 9.2 mph - N/A   Scattered Clouds
1:15 PM 62.6 °F 55.4 °F 77% 29.42 in 6.2 mi North 9.2 mph - N/A   Scattered Clouds
1:45 PM 62.6 °F 53.6 °F 72% 29.42 in 6.2 mi North 8.1 mph - N/A   Scattered Clouds
2:15 PM 64.4 °F 53.6 °F 68% 29.42 in 6.2 mi NNW 4.6 mph - N/A   Partly Cloudy
2:45 PM 64.4 °F 51.8 °F 64% 29.42 in 6.2 mi NNE 6.9 mph - N/A   Partly Cloudy
3:15 PM 62.6 °F 55.4 °F 77% 29.42 in 6.2 mi WNW 9.2 mph - N/A   Partly Cloudy
3:45 PM 62.6 °F 53.6 °F 72% 29.42 in 6.2 mi NW 6.9 mph - N/A   Partly Cloudy
4:15 PM 62.6 °F 53.6 °F 72% 29.42 in 6.2 mi WNW 5.8 mph - N/A   Partly Cloudy
4:45 PM 62.6 °F 53.6 °F 72% 29.42 in 6.2 mi WNW 3.5 mph - N/A   Partly Cloudy
5:15 PM 60.8 °F 53.6 °F 77% 29.42 in 6.2 mi West 3.5 mph - N/A   Scattered Clouds
5:45 PM 59.0 °F 53.6 °F 82% 29.44 in 6.2 mi WNW 4.6 mph - N/A   Partly Cloudy
6:15 PM 59.0 °F 55.4 °F 88% 29.44 in 6.2 mi WNW 3.5 mph - N/A   Partly Cloudy
6:45 PM 59.0 °F 55.4 °F 88% 29.47 in 6.2 mi Calm Calm - N/A   Partly Cloudy
7:15 PM 57.2 °F 55.4 °F 94% 29.47 in 6.2 mi Calm Calm - N/A   Partly Cloudy
7:45 PM 57.2 °F 55.4 °F 94% 29.47 in 6.2 mi Calm Calm - N/A   Partly Cloudy
8:15 PM 57.2 °F 53.6 °F 88% 29.47 in - Calm Calm - N/A   Clear
8:45 PM 55.4 °F 53.6 °F 94% 29.47 in 6.2 mi North 1.2 mph - N/A   Partly Cloudy
9:15 PM 55.4 °F 53.6 °F 94% 29.50 in - NE 3.5 mph - N/A   Clear
9:45 PM 57.2 °F 55.4 °F 94% 29.50 in - NNE 1.2 mph - N/A   Clear
10:15 PM 55.4 °F 55.4 °F 100% 29.50 in - East 1.2 mph - N/A   Clear
10:45 PM 55.4 °F 53.6 °F 94% 29.50 in - Calm Calm - N/A   Clear
11:15 PM 53.6 °F 51.8 °F 94% 29.50 in - North 2.3 mph - N/A   Clear
11:45 PM 51.8 °F 51.8 °F 100% 29.50 in - North 1.2 mph - N/A   Clear